Weather in Spasporub

Russia / Komi Republic     60°38′51″N   49°02′54″E
temp.,
°C
wind,
m/s
gust,
m/s
humid.,
%
clouds,
%
prec.,
mm/h
press.,
hPa
HPBL,
m
12 august, fri
fri1200:00+14wsw31174100 0.0 1017330
03:00+14sw41277100 0.0 1017387
06:00+15wsw41274100 0.0 1016586
09:00+19w5961100 0.0 1015869
12:00+19w596995 0.0 1014996
15:00+21wnw510656 0.4 10141592
18:00+20w411625 0.1 10141411
21:00+14wnw311915 0.1 1015247
13 august, sat
sat1300:00+12wnw312755 0.0 1016298
03:00+10nw28853 0.0 1018170
06:00+12nw27750 0.0 1020240
09:00+17nw48494 0.0 10201268
12:00+20wnw484216 0.0 10192218
15:00+21nw57375 0.0 10192256
18:00+18nw37495 0.0 1019434
21:00+12nw22675 0.0 102040
14 august, sun
sun1400:00+10nw22715 0.0 102028
03:00+9nnw227897 0.0 102118
06:00+12n1367100 0.0 1022110
09:00+17n23455 0.0 1022744
12:00+20nnw233874 0.0 10211734
15:00+20nw33365 0.0 10221959
18:00+18nnw12560 0.0 102229
21:00+11ne11725 0.0 102310
15 august, mon
mon1500:00+10se1173100 0.0 102310
03:00+8sse117754 0.0 102410
06:00+12ssw12695 0.0 102587
09:00+18wsw12475 0.0 1024609
12:00+21w22367 0.0 10241471
15:00+22w23375 0.0 10241529
18:00+20wsw23605 0.0 102378
21:00+14wsw22745 0.0 102441
16 august, tue
tue1600:00+15wsw267075 0.0 1024131
03:00+12wnw238488 0.0 102653
06:00+15nnw13770 0.0 1026134
09:00+20nne23505 0.0 1027716
12:00+23n24425 0.0 10271608
15:00+23n34371 0.0 10261757
18:00+19ne23545 0.0 102764
21:00+13ene12582 0.0 102810